Home   Weather   Nagaur   Past weeks

Flag for India Past Weather in Nagaur, Rajasthan, India — Yesterday and Last 2 Weeks

73 °F


Feels Like: 77 °F
Forecast: 69 / 91 °F
Wind: 5 mph from Northwest

Location: Jaipur / Sanganer

Current Time: Oct 23, 2016 at 6:58:37 AM

Latest Report: Oct 23, 2016 at 6:30 AM

Visibility: 2 mi

Pressure: 29.92 "Hg

Humidity: 47%

Dew Point: 52 °F

Location of NagaurLocation

Past Weather in Nagaur — Graph


Nagaur Temperature Yesterday

Maximum temperature yesterday: 91 °F (at 1:00 PM)
Minimum temperature yesterday: 72 °F (at 5:30 AM)
Average temperature yesterday: 83 °F

High & Low Weather Summary for the Past Weeks

High95 °F (Oct 9, 2:30 PM)94% (Oct 8, 5:30 AM)30.01 "Hg (Oct 8, 5:30 AM)
Low66 °F (Oct 18, 6:00 AM)15% (Oct 15, 3:00 PM)29.71 "Hg (Oct 9, 3:30 PM)
Average84 °F37%29.86 "Hg
* Reported Oct 8 5:30 AM — Oct 23 5:30 AM, Nagaur, Weather by CustomWeather, © 2016

Note: Actual official high and low records may vary slightly from our data, if they occured in-between our weather recording intervals... More about our weather records


Nagaur Weather History for the Previous 24 Hours

Scroll right to see more
Time TempWeatherWind HumidityBarometerVisibility
5:30 AM
Sun, Oct 23
75 °FHaze.6 mph41%29.89 "Hg2 mi
5:00 AM75 °FHaze.6 mph41%29.89 "Hg2 mi
4:00 AM77 °FHaze.5 mph36%29.86 "Hg2 mi
2:30 AM77 °FHaze.5 mph36%29.86 "Hg2 mi
2:00 AM77 °FHaze.5 mph36%29.89 "Hg2 mi
1:00 AM77 °FHaze.3 mph36%29.89 "Hg2 mi
12:00 AM77 °FHaze.1 mph42%29.89 "Hg2 mi
11:30 PM
Sat, Oct 22
77 °FHaze.1 mph39%29.89 "Hg2 mi
11:00 PM77 °FHaze.3 mph42%29.89 "Hg2 mi
10:30 PM77 °FHaze.1 mph39%29.89 "Hg2 mi
9:30 PM81 °FHaze.No wind34%29.89 "Hg2 mi
9:00 PM79 °FHaze.2 mph39%29.89 "Hg2 mi
8:30 PM81 °FHaze.1 mph34%29.89 "Hg2 mi
8:00 PM82 °FHaze.No wind30%29.89 "Hg2 mi
7:30 PM82 °FHaze.2 mph30%29.89 "Hg3 mi
7:00 PM86 °FHaze.2 mph25%29.89 "Hg3 mi
6:30 PM86 °FHaze.3 mph25%29.86 "Hg3 mi
6:00 PM88 °FHaze.3 mph24%29.86 "Hg3 mi
5:30 PM90 °FHaze.6 mph22%29.86 "Hg3 mi
5:00 PM90 °FHaze.3 mph24%29.86 "Hg3 mi
4:30 PM90 °FHaze.7 mph24%29.86 "Hg3 mi
4:00 PM91 °FPassing clouds.7 mph21%29.86 "Hg4 mi
3:00 PM91 °FPassing clouds.3 mph21%29.86 "Hg4 mi
2:30 PM91 °FPassing clouds.2 mph23%29.86 "Hg4 mi
2:00 PM91 °FPassing clouds.5 mph23%29.89 "Hg4 mi
1:30 PM91 °FPassing clouds.10 mph24%29.89 "Hg4 mi
1:00 PM91 °FPassing clouds.6 mph26%29.89 "Hg4 mi
12:00 PM90 °FClear.7 mph29%29.92 "Hg4 mi
11:30 AM88 °FClear.9 mph33%29.95 "Hg4 mi
11:00 AM88 °FHaze.9 mph35%29.95 "Hg3 mi
10:00 AM84 °FHaze.8 mph43%29.98 "Hg3 mi
9:00 AM81 °FHaze.7 mph45%29.95 "Hg3 mi
8:00 AM77 °FHaze.6 mph47%29.95 "Hg3 mi
7:30 AM75 °FHaze.5 mph47%29.92 "Hg2 mi
7:00 AM75 °FHaze.5 mph47%29.92 "Hg2 mi
6:30 AM75 °FHaze.5 mph44%29.89 "Hg2 mi
Weather by CustomWeather, © 2016

See weather overviewHow to use our weather pages